EDT,Max TemperatureF,Mean TemperatureF,Min TemperatureF,Max Dew PointF,MeanDew PointF,Min DewpointF,Max Humidity, Mean Humidity, Min Humidity, Max Sea Level PressureIn, Mean Sea Level PressureIn, Min Sea Level PressureIn, Max VisibilityMiles, Mean VisibilityMiles, Min VisibilityMiles, Max Wind SpeedMPH, Mean Wind SpeedMPH, Max Gust SpeedMPH,PrecipitationIn, CloudCover, Events, WindDirDegrees
2012-9-1,87,80,73,70,68,65,84,70,49,30.14,30.08,30.02,10,10,4,15,4,20,0.00,4,Rain-Thunderstorm,140
2012-9-2,83,78,72,70,69,68,85,74,60,30.05,29.97,29.90,10,10,7,12,5,16,0.00,5,Rain-Thunderstorm,93
2012-9-3,81,76,72,69,67,66,85,74,61,29.95,29.92,29.88,10,10,5,12,5,16,0.00,7,Rain,126
2012-9-4,87,80,73,71,69,64,86,76,45,29.92,29.88,29.83,10,8,2,15,4,20,0.00,6,Rain-Thunderstorm,204
2012-9-5,87,78,68,68,64,57,88,67,37,29.93,29.87,29.81,10,8,0,7,2,,0.00,3,Fog,125
2012-9-6,92,78,64,67,60,50,88,59,24,29.95,29.91,29.87,10,9,2,16,4,29,0.00,2,Rain-Thunderstorm,234
2012-9-7,90,79,68,68,63,51,87,63,26,29.96,29.88,29.68,10,7,1,15,5,23,0.00,2,,196
2012-9-8,79,70,61,65,53,37,86,62,24,29.91,29.77,29.61,10,9,2,22,10,38,0.00,5,Rain-Thunderstorm,274
2012-9-9,74,62,51,52,47,42,88,58,32,30.07,29.97,29.90,10,10,7,10,4,,0.00,4,,314
2012-9-10,75,63,51,51,43,32,86,52,21,30.23,30.17,30.08,10,10,4,12,2,,0.00,0,,51
2012-9-11,80,64,48,49,42,34,85,50,19,30.30,30.24,30.21,10,10,7,10,2,,0.00,0,,142
2012-9-12,86,68,51,53,47,42,82,50,21,30.31,30.26,30.21,10,10,7,10,3,16,0.00,0,,202
2012-9-13,85,72,58,57,51,43,83,52,22,30.31,30.26,30.21,10,10,7,10,2,17,0.00,2,,180
2012-9-14,83,69,53,59,53,46,85,65,31,30.30,30.24,30.20,10,9,4,21,6,28,0.00,3,Rain,294
2012-9-15,74,60,45,49,39,27,87,55,17,30.34,30.26,30.18,10,8,0,12,1,,0.00,1,Fog,1
2012-9-16,78,65,52,48,40,30,78,48,17,30.19,30.13,30.05,10,10,10,9,2,,0.00,0,,95
2012-9-17,80,66,51,62,49,41,85,56,26,30.06,29.95,29.82,10,10,2,13,4,17,0.00,4,Rain,161
2012-9-18,69,62,55,63,53,37,88,67,38,30.00,29.75,29.62,10,7,2,20,6,24,0.00,6,Rain,310
2012-9-19,68,54,40,40,33,23,85,48,18,30.18,30.11,30.01,10,10,10,9,4,,0.00,0,,191
2012-9-20,79,61,43,51,40,32,82,50,18,30.09,30.01,29.93,10,10,10,17,6,23,0.00,2,Rain,202
2012-9-21,73,64,54,52,43,26,82,50,17,30.01,29.92,29.72,10,10,3,21,5,29,0.00,4,Thunderstorm,199
2012-9-22,74,61,46,55,43,24,88,58,21,30.14,29.90,29.74,10,10,4,36,10,44,0.00,4,Rain,270
2012-9-23,66,52,38,40,32,26,84,53,22,30.23,30.18,30.14,10,10,10,14,3,18,0.00,2,,278
2012-9-24,70,52,35,39,30,18,87,50,14,30.29,30.19,30.07,10,10,7,18,3,22,0.00,0,,203
2012-9-25,67,56,46,55,44,32,83,61,35,30.08,30.03,29.98,10,10,10,16,7,25,0.00,5,Rain,184
2012-9-26,78,69,60,63,58,55,84,74,46,30.12,30.04,29.98,10,10,4,18,7,24,0.00,7,Rain-Thunderstorm,215
2012-9-27,68,62,56,63,59,51,88,84,78,30.16,30.12,30.08,10,7,2,12,5,16,0.00,8,Rain,195
2012-9-28,69,62,55,52,48,41,85,67,36,30.15,30.11,30.06,10,9,4,12,4,,0.00,6,,64
2012-9-29,71,60,48,49,44,38,86,58,30,30.09,30.03,29.95,10,10,4,6,1,,0.00,4,,347
2012-9-30,72,59,46,48,41,29,88,58,22,29.94,29.88,29.84,10,8,0,13,4,17,0.00,1,Fog,359